AAL2331 KCLE-KDFW

Flight info

Callsign AAL2331
Flight time 2h 24m
Altitude 38000
Route ZAAPA6 SNNOH TTH ENL FSM KOMMA RRNET SEEVR4
Aircraft B738/M-SDE2E3FGHIRWXY/LB1

Departure

Time 2026-05-04 13:03
Airport Cleveland Hopkins International Airport (KCLE)

Arrival

Time 2026-05-04 15:27
Airport Dallas Fort Worth International Airport (KDFW)
Time Latitude Longitude Altitude Speed Heading
2026-05-04 12:43 41.40972 -81.83993 794 ft 0 kts 134°
2026-05-04 12:52 41.40976 -81.83998 794 ft 2 kts 133°
2026-05-04 12:53 41.40984 -81.84013 794 ft 2 kts 120°
2026-05-04 12:53 41.40991 -81.84032 794 ft 2 kts 110°
2026-05-04 12:53 41.40995 -81.84051 794 ft 2 kts 101°
2026-05-04 12:53 41.40997 -81.84071 794 ft 2 kts 91°
2026-05-04 12:54 41.40997 -81.84090 794 ft 2 kts 82°
2026-05-04 12:54 41.40994 -81.84110 794 ft 2 kts 72°
2026-05-04 12:54 41.40989 -81.84129 794 ft 2 kts 63°
2026-05-04 12:54 41.40980 -81.84145 794 ft 2 kts 53°
2026-05-04 12:55 41.40971 -81.84160 794 ft 0 kts 44°
2026-05-04 12:55 41.40970 -81.84161 794 ft 0 kts 44°
2026-05-04 12:58 41.40971 -81.84161 794 ft 0 kts 44°
2026-05-04 12:59 41.40981 -81.84154 794 ft 1 kts 19°
2026-05-04 12:59 41.41008 -81.84159 794 ft 7 kts 328°
2026-05-04 12:59 41.41045 -81.84239 794 ft 11 kts 289°
2026-05-04 12:59 41.41063 -81.84364 793 ft 15 kts 282°
2026-05-04 13:00 41.41127 -81.84497 792 ft 18 kts 319°
2026-05-04 13:00 41.41228 -81.84460 791 ft 18 kts 49°
2026-05-04 13:00 41.41314 -81.84325 792 ft 19 kts 49°
2026-05-04 13:00 41.41399 -81.84191 793 ft 18 kts 49°
2026-05-04 13:01 41.41493 -81.84170 793 ft 11 kts 323°
2026-05-04 13:01 41.41508 -81.84238 792 ft 6 kts 240°
2026-05-04 13:01 41.41496 -81.84259 792 ft 0 kts 230°
2026-05-04 13:02 41.41429 -81.84367 792 ft 44 kts 230°
2026-05-04 13:02 41.41091 -81.84902 789 ft 104 kts 229°
2026-05-04 13:02 41.40497 -81.85842 781 ft 155 kts 229°
2026-05-04 13:02 41.39760 -81.87013 1150 ft 166 kts 228°
2026-05-04 13:03 41.39057 -81.88110 1880 ft 157 kts 229°
2026-05-04 13:03 41.38344 -81.89262 2406 ft 164 kts 234°
2026-05-04 13:03 41.37829 -81.90637 2828 ft 173 kts 248°
2026-05-04 13:03 41.37396 -81.92170 3274 ft 182 kts 248°
2026-05-04 13:04 41.36896 -81.93757 3660 ft 194 kts 246°
2026-05-04 13:04 41.36337 -81.95489 3980 ft 212 kts 246°
2026-05-04 13:04 41.35738 -81.97363 4436 ft 226 kts 247°
2026-05-04 13:04 41.35123 -81.99309 4923 ft 238 kts 247°
2026-05-04 13:05 41.34460 -82.01405 5473 ft 248 kts 247°
2026-05-04 13:05 41.33788 -82.03533 5924 ft 254 kts 248°
2026-05-04 13:05 41.33093 -82.05733 5989 ft 255 kts 248°
2026-05-04 13:05 41.32412 -82.07891 5996 ft 253 kts 248°
2026-05-04 13:06 41.31724 -82.10074 5996 ft 253 kts 248°
2026-05-04 13:06 41.31050 -82.12215 5992 ft 254 kts 248°
2026-05-04 13:06 41.30365 -82.14396 5991 ft 254 kts 248°
2026-05-04 13:06 41.29684 -82.16560 5994 ft 254 kts 248°
2026-05-04 13:07 41.29009 -82.18709 5993 ft 252 kts 248°
2026-05-04 13:07 41.28331 -82.20868 5992 ft 254 kts 248°
2026-05-04 13:07 41.27614 -82.23036 6016 ft 258 kts 245°
2026-05-04 13:07 41.26775 -82.25208 6628 ft 264 kts 243°
2026-05-04 13:08 41.25905 -82.27295 7441 ft 261 kts 243°
2026-05-04 13:08 41.25027 -82.29387 8164 ft 263 kts 243°
2026-05-04 13:08 41.24140 -82.31529 8805 ft 267 kts 244°
2026-05-04 13:08 41.23243 -82.33720 9486 ft 270 kts 244°
2026-05-04 13:09 41.22346 -82.35915 10137 ft 272 kts 244°
2026-05-04 13:09 41.21441 -82.38137 10534 ft 285 kts 244°
2026-05-04 13:09 41.20474 -82.40510 10892 ft 299 kts 245°
2026-05-04 13:09 41.19460 -82.42994 11221 ft 313 kts 245°
2026-05-04 13:10 41.18514 -82.45638 11540 ft 326 kts 250°
2026-05-04 13:10 41.17701 -82.48524 12055 ft 333 kts 253°
2026-05-04 13:10 41.16965 -82.51430 12666 ft 337 kts 255°
2026-05-04 13:10 41.16228 -82.54408 13329 ft 340 kts 255°
2026-05-04 13:11 41.15482 -82.57376 13868 ft 345 kts 255°
2026-05-04 13:11 41.14711 -82.60397 13987 ft 346 kts 254°
2026-05-04 13:11 41.13925 -82.63421 13982 ft 344 kts 254°
2026-05-04 13:11 41.13135 -82.66433 13982 ft 344 kts 253°
2026-05-04 13:12 41.12336 -82.69464 13986 ft 343 kts 253°
2026-05-04 13:12 41.11553 -82.72433 13985 ft 344 kts 253°
2026-05-04 13:12 41.10769 -82.75415 13981 ft 344 kts 254°
2026-05-04 13:12 41.10074 -82.78461 14098 ft 352 kts 257°
2026-05-04 13:13 41.09497 -82.81580 14972 ft 348 kts 259°
2026-05-04 13:13 41.08970 -82.84721 15740 ft 349 kts 260°
2026-05-04 13:13 41.08453 -82.87869 16382 ft 353 kts 260°
2026-05-04 13:13 41.07923 -82.91045 17030 ft 356 kts 260°
2026-05-04 13:14 41.07378 -82.94247 17645 ft 359 kts 260°
2026-05-04 13:14 41.06817 -82.97482 18252 ft 363 kts 260°
2026-05-04 13:14 41.06245 -83.00732 18887 ft 365 kts 259°
2026-05-04 13:14 41.05666 -83.04005 19449 ft 369 kts 259°
2026-05-04 13:15 41.05074 -83.07338 20032 ft 372 kts 259°
2026-05-04 13:15 41.04478 -83.10683 20568 ft 376 kts 259°
2026-05-04 13:15 41.03871 -83.14088 21151 ft 379 kts 259°
2026-05-04 13:15 41.03269 -83.17457 21698 ft 382 kts 259°
2026-05-04 13:16 41.02658 -83.20875 22278 ft 383 kts 259°
2026-05-04 13:16 41.02039 -83.24332 22761 ft 387 kts 259°
2026-05-04 13:16 41.01421 -83.27780 23282 ft 390 kts 259°
2026-05-04 13:16 41.00791 -83.31286 23816 ft 392 kts 259°
2026-05-04 13:17 41.00164 -83.34766 24334 ft 394 kts 259°
2026-05-04 13:17 40.99526 -83.38299 24799 ft 397 kts 259°
2026-05-04 13:17 40.98884 -83.41848 25300 ft 399 kts 259°
2026-05-04 13:17 40.98228 -83.45470 25740 ft 403 kts 259°
2026-05-04 13:18 40.97577 -83.49062 26171 ft 406 kts 260°
2026-05-04 13:18 40.96915 -83.52708 26551 ft 410 kts 260°
2026-05-04 13:18 40.96241 -83.56410 26991 ft 412 kts 259°
2026-05-04 13:18 40.95569 -83.60097 27377 ft 416 kts 260°
2026-05-04 13:19 40.94888 -83.63824 27783 ft 419 kts 259°
2026-05-04 13:19 40.94194 -83.67610 28213 ft 421 kts 259°
2026-05-04 13:19 40.93487 -83.71461 28625 ft 424 kts 259°
2026-05-04 13:19 40.92780 -83.75303 29061 ft 426 kts 259°
2026-05-04 13:20 40.92074 -83.79134 29437 ft 428 kts 259°
2026-05-04 13:20 40.91362 -83.82984 29758 ft 432 kts 259°
2026-05-04 13:20 40.90592 -83.86803 30109 ft 435 kts 257°
2026-05-04 13:20 40.89608 -83.90683 30516 ft 439 kts 252°
2026-05-04 13:21 40.88366 -83.94358 31050 ft 438 kts 247°
2026-05-04 13:21 40.86914 -83.97926 31553 ft 437 kts 244°
2026-05-04 13:21 40.85360 -84.01386 31942 ft 437 kts 243°
2026-05-04 13:21 40.83763 -84.04812 32329 ft 436 kts 242°
2026-05-04 13:22 40.82175 -84.08177 32737 ft 434 kts 242°
2026-05-04 13:22 40.80567 -84.11576 33115 ft 433 kts 242°
2026-05-04 13:22 40.78969 -84.14959 33430 ft 433 kts 242°
2026-05-04 13:22 40.77399 -84.18290 33757 ft 433 kts 242°
2026-05-04 13:23 40.75811 -84.21665 34162 ft 430 kts 243°
2026-05-04 13:23 40.74233 -84.25024 34461 ft 430 kts 243°
2026-05-04 13:23 40.72662 -84.28368 34792 ft 428 kts 243°
2026-05-04 13:23 40.71100 -84.31693 35107 ft 426 kts 243°
2026-05-04 13:24 40.69555 -84.34980 35414 ft 424 kts 243°
2026-05-04 13:24 40.68006 -84.38274 35710 ft 423 kts 243°
2026-05-04 13:24 40.66468 -84.41544 35955 ft 422 kts 243°
2026-05-04 13:25 40.63370 -84.48122 36360 ft 422 kts 243°
2026-05-04 13:25 40.61817 -84.51415 36613 ft 421 kts 243°
2026-05-04 13:25 40.60284 -84.54659 36835 ft 421 kts 243°
2026-05-04 13:25 40.58739 -84.57928 37103 ft 420 kts 243°
2026-05-04 13:26 40.57201 -84.61177 37348 ft 420 kts 243°
2026-05-04 13:26 40.55649 -84.64451 37607 ft 419 kts 243°
2026-05-04 13:26 40.54102 -84.67709 37850 ft 418 kts 243°
2026-05-04 13:26 40.52550 -84.70978 37977 ft 419 kts 243°
2026-05-04 13:27 40.49454 -84.77489 37972 ft 420 kts 243°
2026-05-04 13:27 40.46378 -84.83939 37976 ft 418 kts 243°
2026-05-04 13:28 40.43308 -84.90370 37987 ft 418 kts 243°
2026-05-04 13:28 40.40226 -84.96809 37981 ft 416 kts 243°
2026-05-04 13:29 40.37128 -85.03268 37985 ft 418 kts 243°
2026-05-04 13:29 40.34034 -85.09708 37990 ft 418 kts 243°
2026-05-04 13:30 40.30915 -85.16182 37973 ft 418 kts 242°
2026-05-04 13:30 40.27815 -85.22603 37978 ft 419 kts 243°
2026-05-04 13:31 40.24704 -85.29034 37978 ft 418 kts 242°
2026-05-04 13:31 40.21580 -85.35478 37975 ft 418 kts 242°
2026-05-04 13:32 40.18463 -85.41898 37979 ft 419 kts 242°
2026-05-04 13:32 40.15329 -85.48338 37976 ft 418 kts 242°
2026-05-04 13:33 40.12208 -85.54734 37987 ft 417 kts 242°
2026-05-04 13:33 40.09084 -85.61129 37978 ft 418 kts 242°
2026-05-04 13:34 40.05967 -85.67494 37979 ft 419 kts 242°
2026-05-04 13:34 40.02818 -85.73913 37972 ft 419 kts 242°
2026-05-04 13:35 39.98088 -85.83527 37979 ft 418 kts 242°
2026-05-04 13:36 39.94946 -85.89896 37984 ft 419 kts 242°
2026-05-04 13:36 39.91784 -85.96295 37983 ft 418 kts 242°
2026-05-04 13:37 39.88638 -86.02687 37987 ft 417 kts 243°
2026-05-04 13:37 39.85990 -86.09371 37985 ft 414 kts 250°
2026-05-04 13:38 39.83769 -86.16229 37988 ft 414 kts 252°
2026-05-04 13:38 39.81621 -86.23157 37988 ft 412 kts 252°
2026-05-04 13:39 39.79465 -86.30077 37983 ft 412 kts 252°
2026-05-04 13:39 39.77287 -86.36994 37983 ft 412 kts 252°
2026-05-04 13:40 39.75098 -86.43890 37977 ft 413 kts 252°
2026-05-04 13:40 39.72906 -86.50762 37977 ft 413 kts 252°
2026-05-04 13:41 39.70707 -86.57636 37983 ft 412 kts 252°
2026-05-04 13:41 39.68502 -86.64502 37986 ft 411 kts 252°
2026-05-04 13:42 39.65192 -86.74788 37988 ft 412 kts 251°
2026-05-04 13:42 39.62968 -86.81671 37985 ft 412 kts 251°
2026-05-04 13:43 39.60738 -86.88558 37986 ft 413 kts 251°
2026-05-04 13:43 39.58522 -86.95386 37979 ft 414 kts 251°
2026-05-04 13:44 39.56278 -87.02281 37974 ft 413 kts 251°
2026-05-04 13:44 39.54055 -87.09092 37969 ft 412 kts 251°
2026-05-04 13:45 39.51820 -87.15929 37964 ft 412 kts 251°
2026-05-04 13:45 39.49546 -87.22723 37968 ft 412 kts 249°
2026-05-04 13:46 39.46668 -87.29196 37964 ft 416 kts 241°
2026-05-04 13:46 39.43310 -87.35395 37967 ft 419 kts 240°
2026-05-04 13:47 39.39912 -87.41496 37821 ft 417 kts 240°
2026-05-04 13:47 39.36544 -87.47570 37814 ft 417 kts 240°
2026-05-04 13:48 39.33173 -87.53690 37818 ft 418 kts 240°
2026-05-04 13:48 39.29800 -87.59824 37815 ft 418 kts 240°
2026-05-04 13:49 39.26449 -87.65915 37824 ft 417 kts 240°
2026-05-04 13:49 39.23080 -87.72034 37826 ft 417 kts 239°
2026-05-04 13:50 39.19717 -87.78127 37831 ft 416 kts 240°
2026-05-04 13:50 39.16354 -87.84212 37824 ft 417 kts 240°
2026-05-04 13:51 39.12991 -87.90286 37821 ft 416 kts 240°
2026-05-04 13:51 39.09636 -87.96334 37815 ft 418 kts 240°
2026-05-04 13:52 39.04584 -88.05412 37824 ft 415 kts 240°
2026-05-04 13:53 39.01203 -88.11477 37828 ft 416 kts 240°
2026-05-04 13:53 38.97842 -88.17493 37825 ft 415 kts 240°
2026-05-04 13:54 38.92793 -88.26511 37833 ft 414 kts 240°
2026-05-04 13:55 38.87731 -88.35527 37841 ft 412 kts 240°
2026-05-04 13:55 38.82677 -88.44511 37843 ft 415 kts 240°
2026-05-04 13:56 38.79294 -88.50502 37845 ft 415 kts 240°
2026-05-04 13:57 38.74229 -88.59452 37851 ft 412 kts 240°
2026-05-04 13:58 38.67509 -88.71300 37842 ft 414 kts 239°
2026-05-04 13:58 38.62425 -88.80230 37844 ft 414 kts 239°
2026-05-04 13:59 38.59049 -88.86143 37853 ft 411 kts 240°
2026-05-04 14:00 38.53966 -88.95033 37854 ft 413 kts 239°
2026-05-04 14:00 38.48883 -89.03895 37856 ft 413 kts 240°
2026-05-04 14:01 38.45508 -89.09766 37857 ft 412 kts 240°
2026-05-04 14:02 38.40425 -89.18634 37852 ft 412 kts 240°
2026-05-04 14:02 38.37155 -89.24569 37853 ft 411 kts 241°
2026-05-04 14:03 38.33889 -89.30551 37856 ft 411 kts 241°
2026-05-04 14:03 38.30626 -89.36501 37849 ft 410 kts 241°
2026-05-04 14:04 38.25707 -89.45422 37858 ft 411 kts 241°
2026-05-04 14:04 38.22436 -89.51328 37865 ft 409 kts 241°
2026-05-04 14:05 38.17505 -89.60210 37858 ft 411 kts 241°
2026-05-04 14:06 38.14196 -89.66155 37863 ft 411 kts 240°
2026-05-04 14:06 38.10887 -89.72089 37859 ft 411 kts 241°
2026-05-04 14:07 38.07576 -89.78017 37860 ft 411 kts 240°
2026-05-04 14:07 38.04282 -89.83903 37857 ft 411 kts 240°
2026-05-04 14:08 38.00956 -89.89838 37860 ft 410 kts 240°
2026-05-04 14:08 37.97663 -89.95699 37863 ft 410 kts 241°
2026-05-04 14:09 37.92691 -90.04535 37862 ft 410 kts 241°
2026-05-04 14:10 37.87680 -90.13414 37867 ft 410 kts 241°
2026-05-04 14:10 37.84371 -90.19261 37876 ft 409 kts 241°
2026-05-04 14:11 37.81072 -90.25086 37879 ft 409 kts 241°
2026-05-04 14:11 37.76081 -90.33881 37880 ft 410 kts 241°
2026-05-04 14:12 37.72738 -90.39759 37887 ft 411 kts 241°
2026-05-04 14:13 37.67733 -90.48538 37893 ft 411 kts 241°
2026-05-04 14:13 37.64382 -90.54399 37883 ft 410 kts 240°
2026-05-04 14:14 37.61052 -90.60216 37881 ft 411 kts 241°
2026-05-04 14:14 37.55991 -90.69038 37886 ft 412 kts 240°
2026-05-04 14:15 37.49271 -90.80705 37901 ft 413 kts 240°
2026-05-04 14:16 37.44224 -90.89439 37893 ft 410 kts 240°
2026-05-04 14:17 37.39145 -90.98215 37902 ft 412 kts 240°
2026-05-04 14:18 37.34087 -91.06928 37900 ft 410 kts 240°
2026-05-04 14:19 37.27352 -91.18496 37900 ft 411 kts 240°
2026-05-04 14:19 37.23963 -91.24304 37905 ft 412 kts 240°
2026-05-04 14:20 37.20587 -91.30077 37900 ft 412 kts 240°
2026-05-04 14:20 37.17192 -91.35871 37891 ft 412 kts 240°
2026-05-04 14:21 37.12098 -91.44545 37897 ft 411 kts 240°
2026-05-04 14:21 37.08686 -91.50343 37902 ft 411 kts 240°
2026-05-04 14:22 37.05280 -91.56121 37902 ft 412 kts 240°
2026-05-04 14:22 37.01875 -91.61891 37908 ft 411 kts 240°
2026-05-04 14:23 36.96773 -91.70509 37906 ft 412 kts 240°
2026-05-04 14:24 36.93366 -91.76254 37918 ft 411 kts 240°
2026-05-04 14:24 36.89969 -91.81972 37910 ft 411 kts 240°
2026-05-04 14:25 36.86518 -91.87775 37913 ft 411 kts 240°
2026-05-04 14:25 36.81390 -91.96378 37917 ft 412 kts 240°
2026-05-04 14:26 36.77983 -92.02077 37919 ft 411 kts 240°
2026-05-04 14:26 36.74570 -92.07776 37908 ft 411 kts 240°
2026-05-04 14:27 36.71149 -92.13477 37904 ft 411 kts 240°
2026-05-04 14:27 36.67700 -92.19218 37904 ft 411 kts 240°
2026-05-04 14:28 36.64299 -92.24865 37909 ft 410 kts 240°
2026-05-04 14:28 36.60863 -92.30566 37899 ft 410 kts 240°
2026-05-04 14:29 36.53992 -92.41941 37918 ft 411 kts 240°
2026-05-04 14:30 36.50553 -92.47617 37912 ft 411 kts 240°
2026-05-04 14:31 36.45418 -92.56076 37919 ft 410 kts 241°
2026-05-04 14:32 36.38532 -92.67390 37922 ft 411 kts 240°
2026-05-04 14:32 36.35075 -92.73055 37908 ft 410 kts 240°
2026-05-04 14:33 36.31634 -92.78681 37914 ft 408 kts 240°
2026-05-04 14:33 36.28215 -92.84265 37906 ft 409 kts 241°
2026-05-04 14:34 36.24768 -92.89890 37897 ft 410 kts 241°
2026-05-04 14:34 36.21334 -92.95480 37920 ft 409 kts 241°
2026-05-04 14:35 36.17887 -93.01080 37915 ft 408 kts 241°
2026-05-04 14:35 36.14438 -93.06679 37929 ft 409 kts 242°
2026-05-04 14:36 36.10979 -93.12282 37901 ft 409 kts 241°
2026-05-04 14:36 36.07534 -93.17849 37916 ft 408 kts 242°
2026-05-04 14:37 36.04111 -93.23377 37943 ft 407 kts 242°
2026-05-04 14:37 36.00663 -93.28933 37931 ft 404 kts 242°
2026-05-04 14:38 35.97246 -93.34438 37913 ft 406 kts 243°
2026-05-04 14:38 35.93814 -93.39954 37921 ft 403 kts 242°
2026-05-04 14:39 35.90411 -93.45412 37935 ft 401 kts 242°
2026-05-04 14:39 35.86979 -93.50910 37931 ft 401 kts 243°
2026-05-04 14:40 35.81879 -93.59062 37925 ft 401 kts 243°
2026-05-04 14:40 35.78471 -93.64493 37941 ft 399 kts 244°
2026-05-04 14:41 35.75040 -93.69965 37945 ft 403 kts 243°
2026-05-04 14:42 35.68229 -93.80793 37941 ft 399 kts 244°
2026-05-04 14:42 35.64849 -93.86152 37942 ft 399 kts 244°
2026-05-04 14:43 35.61446 -93.91534 37933 ft 397 kts 244°
2026-05-04 14:43 35.58067 -93.96875 37936 ft 398 kts 244°
2026-05-04 14:44 35.54672 -94.02236 37921 ft 398 kts 244°
2026-05-04 14:44 35.51253 -94.07630 37921 ft 399 kts 244°
2026-05-04 14:45 35.47871 -94.12944 37922 ft 397 kts 245°
2026-05-04 14:45 35.44473 -94.18269 37919 ft 396 kts 245°
2026-05-04 14:46 35.41092 -94.23566 37927 ft 391 kts 244°
2026-05-04 14:46 35.37478 -94.28659 37924 ft 405 kts 238°
2026-05-04 14:47 35.33266 -94.33426 37924 ft 413 kts 235°
2026-05-04 14:47 35.28946 -94.38043 37934 ft 412 kts 235°
2026-05-04 14:48 35.24666 -94.42625 37933 ft 409 kts 235°
2026-05-04 14:48 35.20359 -94.47275 37930 ft 410 kts 235°
2026-05-04 14:49 35.16118 -94.51865 37943 ft 408 kts 236°
2026-05-04 14:49 35.11866 -94.56480 37944 ft 408 kts 236°
2026-05-04 14:50 35.07625 -94.61063 37954 ft 407 kts 236°
2026-05-04 14:50 35.03335 -94.65713 37951 ft 412 kts 235°
2026-05-04 14:51 34.99034 -94.70336 37951 ft 408 kts 235°
2026-05-04 14:51 34.94750 -94.74895 37961 ft 413 kts 235°
2026-05-04 14:52 34.90438 -94.79462 37960 ft 407 kts 235°
2026-05-04 14:52 34.86124 -94.84025 37959 ft 407 kts 236°
2026-05-04 14:53 34.81830 -94.88586 37957 ft 412 kts 235°
2026-05-04 14:53 34.77496 -94.93057 37964 ft 409 kts 235°
2026-05-04 14:54 34.73122 -94.97506 37962 ft 409 kts 234°
2026-05-04 14:54 34.68725 -95.01978 37961 ft 413 kts 235°
2026-05-04 14:55 34.64345 -95.06424 37961 ft 409 kts 235°
2026-05-04 14:55 34.59968 -95.10860 37962 ft 406 kts 235°
2026-05-04 14:56 34.55637 -95.15262 37964 ft 405 kts 235°
2026-05-04 14:56 34.51330 -95.19647 37964 ft 406 kts 236°
2026-05-04 14:57 34.46976 -95.24068 37966 ft 409 kts 235°
2026-05-04 14:57 34.42576 -95.28511 37963 ft 409 kts 235°
2026-05-04 14:58 34.38258 -95.32824 37651 ft 396 kts 235°
2026-05-04 14:58 34.36140 -95.34933 37241 ft 390 kts 236°
2026-05-04 14:58 34.34049 -95.37024 36740 ft 385 kts 236°
2026-05-04 14:59 34.31998 -95.39087 36183 ft 383 kts 236°
2026-05-04 14:59 34.29963 -95.41139 35597 ft 382 kts 235°
2026-05-04 14:59 34.25873 -95.45276 34314 ft 386 kts 234°
2026-05-04 15:00 34.23807 -95.47361 33632 ft 388 kts 235°
2026-05-04 15:00 34.21748 -95.49434 33011 ft 390 kts 234°
2026-05-04 15:00 34.19655 -95.51535 32515 ft 391 kts 233°
2026-05-04 15:01 34.15302 -95.55933 31589 ft 417 kts 232°
2026-05-04 15:01 34.13098 -95.58138 31078 ft 416 kts 231°
2026-05-04 15:01 34.10871 -95.60342 30572 ft 412 kts 231°
2026-05-04 15:01 34.08667 -95.62517 30076 ft 407 kts 230°
2026-05-04 15:02 34.06468 -95.64685 29554 ft 404 kts 230°
2026-05-04 15:02 34.04288 -95.66836 29041 ft 400 kts 229°
2026-05-04 15:02 34.02131 -95.68967 28536 ft 396 kts 229°
2026-05-04 15:02 34.00016 -95.71058 28043 ft 392 kts 229°
2026-05-04 15:03 33.97931 -95.73121 27552 ft 389 kts 229°
2026-05-04 15:03 33.95840 -95.75190 27067 ft 385 kts 229°
2026-05-04 15:03 33.93785 -95.77233 26573 ft 381 kts 229°
2026-05-04 15:03 33.91771 -95.79247 26088 ft 378 kts 229°
2026-05-04 15:04 33.89753 -95.81271 25603 ft 375 kts 229°
2026-05-04 15:04 33.87754 -95.83275 25114 ft 371 kts 228°
2026-05-04 15:04 33.85761 -95.85274 24633 ft 367 kts 228°
2026-05-04 15:04 33.83796 -95.87240 24154 ft 364 kts 228°
2026-05-04 15:05 33.81860 -95.89171 23670 ft 361 kts 228°
2026-05-04 15:05 33.79916 -95.91097 23195 ft 358 kts 228°
2026-05-04 15:05 33.78007 -95.92984 22720 ft 355 kts 227°
2026-05-04 15:05 33.76114 -95.94851 22256 ft 352 kts 227°
2026-05-04 15:06 33.74233 -95.96705 21796 ft 349 kts 227°
2026-05-04 15:06 33.72352 -95.98556 21329 ft 346 kts 227°
2026-05-04 15:06 33.70507 -96.00373 20878 ft 343 kts 227°
2026-05-04 15:07 33.66849 -96.03975 19959 ft 338 kts 227°
2026-05-04 15:07 33.65035 -96.05761 19499 ft 336 kts 227°
2026-05-04 15:07 33.63236 -96.07532 19037 ft 334 kts 227°
2026-05-04 15:07 33.61443 -96.09294 18575 ft 332 kts 227°
2026-05-04 15:08 33.59668 -96.11039 18116 ft 330 kts 227°
2026-05-04 15:08 33.57877 -96.12798 17657 ft 328 kts 227°
2026-05-04 15:08 33.56117 -96.14525 17208 ft 326 kts 227°
2026-05-04 15:08 33.54367 -96.16240 16769 ft 324 kts 227°
2026-05-04 15:09 33.52652 -96.17921 16323 ft 322 kts 226°
2026-05-04 15:09 33.50917 -96.19622 15873 ft 321 kts 226°
2026-05-04 15:09 33.49173 -96.21330 15414 ft 319 kts 226°
2026-05-04 15:10 33.45749 -96.24688 14519 ft 316 kts 226°
2026-05-04 15:10 33.44137 -96.26453 14158 ft 308 kts 231°
2026-05-04 15:10 33.41316 -96.30223 13295 ft 303 kts 236°
2026-05-04 15:11 33.39967 -96.32139 12872 ft 302 kts 235°
2026-05-04 15:11 33.38606 -96.34057 12432 ft 301 kts 234°
2026-05-04 15:11 33.37237 -96.35960 12013 ft 299 kts 234°
2026-05-04 15:11 33.35877 -96.37837 11586 ft 298 kts 234°
2026-05-04 15:12 33.34529 -96.39689 11242 ft 294 kts 234°
2026-05-04 15:12 33.33213 -96.41533 10955 ft 287 kts 237°
2026-05-04 15:12 33.32197 -96.43510 10701 ft 275 kts 250°
2026-05-04 15:12 33.31558 -96.45610 10461 ft 266 kts 256°
2026-05-04 15:13 33.31039 -96.47710 10213 ft 260 kts 257°
2026-05-04 15:13 33.30523 -96.49767 9967 ft 255 kts 256°
2026-05-04 15:13 33.29989 -96.51768 9721 ft 251 kts 255°
2026-05-04 15:13 33.29444 -96.53734 9470 ft 249 kts 255°
2026-05-04 15:14 33.28899 -96.55703 9176 ft 248 kts 256°
2026-05-04 15:14 33.28563 -96.57727 8884 ft 248 kts 266°
2026-05-04 15:14 33.28467 -96.59768 8592 ft 246 kts 269°
2026-05-04 15:14 33.28426 -96.61797 8299 ft 244 kts 269°
2026-05-04 15:15 33.28366 -96.63833 8003 ft 243 kts 268°
2026-05-04 15:15 33.28263 -96.65834 7712 ft 241 kts 265°
2026-05-04 15:15 33.28128 -96.67851 7419 ft 241 kts 265°
2026-05-04 15:16 33.27870 -96.71820 6831 ft 238 kts 265°
2026-05-04 15:16 33.27751 -96.73807 6538 ft 236 kts 265°
2026-05-04 15:16 33.27543 -96.77689 5950 ft 234 kts 265°
2026-05-04 15:17 33.27459 -96.79606 5660 ft 232 kts 265°
2026-05-04 15:17 33.27339 -96.83428 5075 ft 228 kts 265°
2026-05-04 15:17 33.27156 -96.85278 4818 ft 221 kts 248°
2026-05-04 15:18 33.26316 -96.86753 4576 ft 215 kts 220°
2026-05-04 15:18 33.25088 -96.87772 4341 ft 212 kts 213°
2026-05-04 15:18 33.23840 -96.88679 4095 ft 209 kts 212°
2026-05-04 15:19 33.21381 -96.90469 3605 ft 204 kts 212°
2026-05-04 15:19 33.20184 -96.91354 3363 ft 202 kts 212°
2026-05-04 15:19 33.17830 -96.93119 2985 ft 195 kts 212°
2026-05-04 15:20 33.16688 -96.94003 2991 ft 200 kts 212°
2026-05-04 15:20 33.15508 -96.94923 2990 ft 199 kts 212°
2026-05-04 15:20 33.14345 -96.95840 2994 ft 200 kts 212°
2026-05-04 15:20 33.13208 -96.96735 2986 ft 197 kts 213°
2026-05-04 15:21 33.12054 -96.97639 2983 ft 192 kts 212°
2026-05-04 15:21 33.10965 -96.98491 2992 ft 180 kts 212°
2026-05-04 15:21 33.09029 -96.99999 3001 ft 155 kts 213°
2026-05-04 15:22 33.08112 -97.00709 2987 ft 157 kts 213°
2026-05-04 15:22 33.07200 -97.01415 2987 ft 157 kts 213°
2026-05-04 15:22 33.05226 -97.02393 2992 ft 148 kts 190°
2026-05-04 15:23 33.04192 -97.02483 2981 ft 148 kts 187°
2026-05-04 15:23 33.03186 -97.02525 2818 ft 141 kts 185°
2026-05-04 15:23 33.02213 -97.02535 2633 ft 137 kts 185°
2026-05-04 15:23 33.01259 -97.02548 2485 ft 137 kts 185°
2026-05-04 15:24 32.99368 -97.02551 2096 ft 131 kts 184°
2026-05-04 15:24 32.97501 -97.02565 1718 ft 135 kts 182°
2026-05-04 15:25 32.96552 -97.02572 1553 ft 137 kts 183°
2026-05-04 15:25 32.95581 -97.02579 1369 ft 136 kts 182°
2026-05-04 15:25 32.94609 -97.02579 1201 ft 136 kts 182°
2026-05-04 15:26 32.92661 -97.02593 822 ft 144 kts 181°
2026-05-04 15:26 32.91694 -97.02595 615 ft 139 kts 182°
2026-05-04 15:26 32.89981 -97.02613 565 ft 95 kts 179°
2026-05-04 15:27 32.89544 -97.02612 562 ft 31 kts 180°
2026-05-04 15:27 32.89117 -97.02750 564 ft 29 kts 209°
2026-05-04 15:28 32.89035 -97.03108 570 ft 23 kts 269°
2026-05-04 15:28 32.89052 -97.03294 573 ft 21 kts 309°
2026-05-04 15:28 32.89366 -97.03320 575 ft 25 kts
2026-05-04 15:29 32.89560 -97.03319 577 ft 29 kts
2026-05-04 15:30 32.90323 -97.03378 585 ft 11 kts 272°
2026-05-04 15:30 32.90380 -97.03507 588 ft 0 kts 311°